Вернуться в каталог

FENGYUN 1C DEB

АктивенSSO
NORAD 40696·DEBRIS·🇨🇳 China

Запущен May 10, 1999 с Taiyuan Satellite Launch Center

Loading…

Ближайшие Пролёты (ближайшие 24 часа)

TLE

УстаревающийSource: Space-Track

Эпоха: Sep 9, 2026, 16:35 UTC

1 40696U 99025EXC 26252.69114036  .00000114  00000-0  11079-3 0  9994
2 40696  98.9822 237.7963 0079442 332.2781  27.4158 13.96868029594629

Отслеживайте FENGYUN 1C DEB в реальном времени с AllMySat

Download on the App Store